When you browse on this site, cookies collect data to enhance your experience and personalize the content and advertising you see.
Visit our Privacy Policy to learn more. By continuing to use the site, you agree to this use of cookies and data.

Meteo pe oră la Dziembakowo

Astăzi, 25 Septembrie, Vineri

Timp Temperatura Precipitaţii Vânt Presiune Umiditate
00:00 +17°C° 0 mm 2 m/s 744 mmHg 75%
01:00 +17°C° 0 mm 2 m/s 744 mmHg 77%
02:00 +16°C° 0 mm 2 m/s 744 mmHg 79%
03:00 +16°C° 0 mm 3 m/s 743 mmHg 81%
04:00 +16°C° 0 mm 3 m/s 743 mmHg 83%
05:00 +16°C° 0 mm 3 m/s 742 mmHg 82%
06:00 +17°C° 0 mm 4 m/s 742 mmHg 81%
07:00 +17°C° 0 mm 4 m/s 742 mmHg 81%
08:00 +19°C° 0 mm 5 m/s 741 mmHg 73%
09:00 +21°C° 0 mm 5 m/s 741 mmHg 65%
10:00 +23°C° 0 mm 6 m/s 740 mmHg 58%
11:00 +23°C° 0 mm 6 m/s 740 mmHg 55%
12:00 +24°C° 0 mm 7 m/s 739 mmHg 52%
13:00 +26°C° 0 mm 7 m/s 738 mmHg 50%
14:00 +24°C° 0 mm 7 m/s 738 mmHg 51%
15:00 +24°C° 0 mm 6 m/s 738 mmHg 53%
16:00 +25°C° 0 mm 5 m/s 737 mmHg 54%
17:00 +22°C° 1 mm 4 m/s 737 mmHg 65%
18:00 +20°C° 1 mm 3 m/s 737 mmHg 76%
19:00 +18°C° 1 mm 2 m/s 737 mmHg 88%
20:00 +18°C° 0.2 mm 2 m/s 737 mmHg 88%
21:00 +18°C° 0.2 mm 3 m/s 737 mmHg 89%
22:00 +18°C° 0.2 mm 3 m/s 737 mmHg 89%
23:00 +17°C° 0.1 mm 2 m/s 737 mmHg 90%

Mâine, 26 Septembrie, Sâmbătă

Timp Temperatura Precipitaţii Vânt Presiune Umiditate
00:00 +17°C° 0.1 mm 2 m/s 737 mmHg 90%
01:00 +17°C° 0.1 mm 2 m/s 737 mmHg 91%
02:00 +17°C° 0 mm 2 m/s 737 mmHg 92%
03:00 +16°C° 0 mm 2 m/s 736 mmHg 94%
04:00 +16°C° 0 mm 2 m/s 736 mmHg 95%
05:00 +16°C° 0 mm 3 m/s 736 mmHg 93%
06:00 +17°C° 0 mm 4 m/s 736 mmHg 90%
07:00 +16°C° 0 mm 5 m/s 735 mmHg 88%
08:00 +19°C° 0 mm 6 m/s 735 mmHg 80%
09:00 +20°C° 0 mm 7 m/s 735 mmHg 72%
10:00 +22°C° 0 mm 7 m/s 735 mmHg 65%
11:00 +21°C° 0.1 mm 7 m/s 735 mmHg 68%
12:00 +20°C° 0.1 mm 6 m/s 735 mmHg 72%
13:00 +20°C° 0.1 mm 5 m/s 735 mmHg 75%
14:00 +19°C° 0.7 mm 5 m/s 736 mmHg 80%
15:00 +18°C° 0.7 mm 4 m/s 736 mmHg 85%
16:00 +18°C° 0.7 mm 4 m/s 736 mmHg 89%
17:00 +17°C° 0.7 mm 3 m/s 736 mmHg 91%
18:00 +17°C° 0.7 mm 3 m/s 737 mmHg 92%
19:00 +17°C° 0.7 mm 2 m/s 737 mmHg 93%
20:00 +16°C° 2.3 mm 2 m/s 737 mmHg 92%
21:00 +14°C° 2.3 mm 3 m/s 737 mmHg 90%
22:00 +13°C° 2.3 mm 3 m/s 738 mmHg 89%
23:00 +13°C° 0.8 mm 3 m/s 738 mmHg 90%

Poimâine, 27 Septembrie, Duminică

Timp Temperatura Precipitaţii Vânt Presiune Umiditate
00:00 +13°C° 0.8 mm 3 m/s 738 mmHg 91%
01:00 +13°C° 0.8 mm 3 m/s 738 mmHg 92%
02:00 +12°C° 1.1 mm 4 m/s 738 mmHg 92%
03:00 +11°C° 1.1 mm 4 m/s 738 mmHg 92%
04:00 +11°C° 1.1 mm 4 m/s 738 mmHg 92%
05:00 +11°C° 0.8 mm 4 m/s 738 mmHg 93%
06:00 +10°C° 0.8 mm 4 m/s 738 mmHg 93%
07:00 +10°C° 0.8 mm 4 m/s 738 mmHg 93%
08:00 +10°C° 1.4 mm 4 m/s 738 mmHg 93%
09:00 +10°C° 1.4 mm 4 m/s 738 mmHg 94%
10:00 +11°C° 1.4 mm 4 m/s 739 mmHg 94%
11:00 +11°C° 1.8 mm 4 m/s 738 mmHg 94%
12:00 +12°C° 1.8 mm 4 m/s 738 mmHg 94%
13:00 +12°C° 1.8 mm 4 m/s 738 mmHg 94%
14:00 +12°C° 1.5 mm 4 m/s 738 mmHg 93%
15:00 +13°C° 1.5 mm 4 m/s 738 mmHg 93%
16:00 +13°C° 1.5 mm 4 m/s 738 mmHg 93%
17:00 +13°C° 0.4 mm 4 m/s 738 mmHg 93%
18:00 +12°C° 0.4 mm 4 m/s 739 mmHg 93%
19:00 +12°C° 0.4 mm 4 m/s 739 mmHg 93%
20:00 +11°C° 0.1 mm 4 m/s 740 mmHg 93%
21:00 +11°C° 0.1 mm 4 m/s 740 mmHg 93%
22:00 +10°C° 0.1 mm 4 m/s 740 mmHg 93%
23:00 +9°C° 0.3 mm 5 m/s 741 mmHg 93%

28 Septembrie, Luni

Timp Temperatura Precipitaţii Vânt Presiune Umiditate
00:00 +9°C° 0.3 mm 5 m/s 741 mmHg 92%
01:00 +9°C° 0.3 mm 6 m/s 741 mmHg 92%
02:00 +9°C° 0.4 mm 6 m/s 741 mmHg 91%
03:00 +9°C° 0.4 mm 7 m/s 742 mmHg 91%
04:00 +9°C° 0.4 mm 7 m/s 742 mmHg 91%
05:00 +9°C° 1.1 mm 7 m/s 742 mmHg 91%
06:00 +9°C° 1.1 mm 8 m/s 742 mmHg 91%
07:00 +9°C° 1.1 mm 8 m/s 743 mmHg 91%
08:00 +9°C° 1.2 mm 8 m/s 743 mmHg 90%
09:00 +9°C° 1.2 mm 8 m/s 743 mmHg 90%
10:00 +9°C° 1.2 mm 8 m/s 744 mmHg 90%
11:00 +9°C° 0.3 mm 7 m/s 744 mmHg 86%
12:00 +10°C° 0.3 mm 7 m/s 744 mmHg 82%
13:00 +10°C° 0.3 mm 6 m/s 745 mmHg 78%
14:00 +11°C° 0 mm 6 m/s 745 mmHg 76%
15:00 +13°C° 0 mm 5 m/s 745 mmHg 74%
16:00 +13°C° 0 mm 4 m/s 745 mmHg 72%
17:00 +12°C° 0 mm 4 m/s 746 mmHg 74%
18:00 +12°C° 0 mm 4 m/s 746 mmHg 75%
19:00 +11°C° 0 mm 4 m/s 746 mmHg 77%
20:00 +10°C° 0 mm 4 m/s 746 mmHg 80%
21:00 +10°C° 0 mm 4 m/s 746 mmHg 83%
22:00 +8°C° 0 mm 4 m/s 747 mmHg 85%
23:00 +8°C° 0 mm 4 m/s 747 mmHg 88%

29 Septembrie, Marţi

Timp Temperatura Precipitaţii Vânt Presiune Umiditate
00:00 +9°C° 0 mm 3 m/s 746 mmHg 90%
01:00 +9°C° 0 mm 3 m/s 746 mmHg 92%
02:00 +9°C° 0 mm 3 m/s 746 mmHg 91%
03:00 +9°C° 0 mm 3 m/s 746 mmHg 91%
04:00 +8°C° 0 mm 2 m/s 746 mmHg 91%
05:00 +9°C° 0 mm 2 m/s 746 mmHg 90%
06:00 +9°C° 0 mm 2 m/s 746 mmHg 89%
07:00 +10°C° 0 mm 2 m/s 746 mmHg 87%
08:00 +12°C° 0 mm 2 m/s 746 mmHg 80%
09:00 +13°C° 0 mm 2 m/s 746 mmHg 73%
10:00 +15°C° 0 mm 2 m/s 747 mmHg 66%
11:00 +16°C° 0 mm 2 m/s 747 mmHg 63%
12:00 +16°C° 0 mm 2 m/s 747 mmHg 59%
13:00 +17°C° 0 mm 2 m/s 747 mmHg 56%
14:00 +18°C° 0 mm 1 m/s 747 mmHg 58%
15:00 +18°C° 0 mm 1 m/s 747 mmHg 60%
16:00 +18°C° 0 mm 1 m/s 747 mmHg 62%
17:00 +16°C° 0 mm 1 m/s 747 mmHg 68%
18:00 +14°C° 0 mm 1 m/s 747 mmHg 74%
19:00 +13°C° 0 mm 1 m/s 747 mmHg 80%
20:00 +13°C° 0 mm 1 m/s 748 mmHg 82%
21:00 +12°C° 0 mm 1 m/s 748 mmHg 83%
22:00 +12°C° 0 mm 1 m/s 748 mmHg 85%
23:00 +12°C° 0 mm 1 m/s 748 mmHg 87%

30 Septembrie, Miercuri

Timp Temperatura Precipitaţii Vânt Presiune Umiditate
00:00 +12°C° 0 mm 2 m/s 748 mmHg 88%
01:00 +12°C° 0 mm 2 m/s 748 mmHg 89%
02:00 +12°C° 0 mm 2 m/s 748 mmHg 90%
03:00 +11°C° 0 mm 3 m/s 748 mmHg 92%
04:00 +12°C° 0 mm 3 m/s 748 mmHg 94%
05:00 +12°C° 0.2 mm 3 m/s 748 mmHg 93%
06:00 +12°C° 0.2 mm 3 m/s 748 mmHg 93%
07:00 +12°C° 0.2 mm 4 m/s 748 mmHg 93%
08:00 +13°C° 0 mm 4 m/s 748 mmHg 91%
09:00 +13°C° 0 mm 3 m/s 747 mmHg 89%
10:00 +14°C° 0 mm 3 m/s 747 mmHg 88%
11:00 +15°C° 0 mm 4 m/s 747 mmHg 83%
12:00 +16°C° 0 mm 5 m/s 747 mmHg 77%
13:00 +19°C° 0 mm 5 m/s 747 mmHg 72%
14:00 +17°C° 0 mm 5 m/s 747 mmHg 72%
15:00 +17°C° 0 mm 5 m/s 747 mmHg 72%
16:00 +18°C° 0 mm 4 m/s 746 mmHg 71%
17:00 +17°C° 0 mm 4 m/s 746 mmHg 75%
18:00 +15°C° 0 mm 4 m/s 747 mmHg 78%
19:00 +14°C° 0 mm 3 m/s 747 mmHg 81%
20:00 +14°C° 0 mm 3 m/s 747 mmHg 82%
21:00 +14°C° 0 mm 3 m/s 747 mmHg 82%
22:00 +14°C° 0 mm 3 m/s 746 mmHg 83%
23:00 +13°C° 0 mm 3 m/s 746 mmHg 85%
Arată mai mult